{"data":{"norad_id":61707,"intl_designator":"2024-196A","name":"STARLINK-32376","alt_names":[],"object_type":"PAYLOAD","status":"ACTIVE","operator":null,"country":"US","launch_date":"2024-10-30","launch_site_code":"AFETR","launch_vehicle":null,"mission":null,"orbit_class":"UNKNOWN","rcs_meters":null,"size_class":null,"mass_kg":null,"dimensions":null,"purposes":["comms"],"wikipedia_slug":null,"has_3d_model":false,"image_url":null,"decayed_at":null,"tle_current":{"epoch":"2026-09-21T17:18:59.270976Z","epoch_age_seconds":82975,"freshness":"FRESH","line1":"1 61707U 24196A   26264.72151934  .00001198  00000+0  46598-4 0  9999","line2":"2 61707  53.1596 267.6983 0001478  88.1379 271.9793 15.34388272107222","mean_motion":15.34388272,"eccentricity":0.0001478,"inclination_deg":53.1596,"raan_deg":267.6983,"arg_perigee_deg":88.1379,"mean_anomaly_deg":271.9793,"bstar":4.6598e-5,"rev_number":10722,"period_min":93.848475400756,"perigee_km":461.72701717714,"apogee_km":463.74917985626,"semimajor_km":6840.8750985167,"source":"CELESTRAK","updated_at":"2026-09-22T09:00:49.409723Z"}}}